TimePDT,TemperatureF,Dew PointF,Humidity,Sea Level PressureIn,VisibilityMPH,Wind Direction,Wind SpeedMPH,Gust SpeedMPH,PrecipitationIn,Events,Conditions,WindDirDegrees,DateUTC
12:55 AM,51.1,46.0,83,30.07,10.0,NNE,6.9,-,N/A,,Clear,30,2013-10-31 07:55:00
1:55 AM,48.9,45.0,86,30.07,10.0,NNE,3.5,-,N/A,,Clear,20,2013-10-31 08:55:00
2:55 AM,50.0,44.1,80,30.07,10.0,NNE,5.8,-,N/A,,Clear,30,2013-10-31 09:55:00
3:55 AM,48.0,43.0,83,30.07,10.0,SSW,3.5,-,N/A,,Clear,210,2013-10-31 10:55:00
4:55 AM,45.0,39.9,82,30.07,10.0,Calm,Calm,-,N/A,,Clear,0,2013-10-31 11:55:00
5:55 AM,46.0,41.0,83,30.09,10.0,Calm,Calm,-,N/A,,Clear,0,2013-10-31 12:55:00
6:55 AM,46.9,41.0,80,30.09,10.0,ENE,3.5,-,N/A,,Clear,70,2013-10-31 13:55:00
7:55 AM,48.9,41.0,74,30.09,10.0,Calm,Calm,-,N/A,,Clear,0,2013-10-31 14:55:00
8:55 AM,57.0,42.1,57,30.11,10.0,NW,3.5,-,N/A,,Clear,310,2013-10-31 15:55:00
9:55 AM,66.0,39.0,37,30.11,10.0,Calm,Calm,-,N/A,,Clear,0,2013-10-31 16:55:00
10:55 AM,69.1,39.9,35,30.11,10.0,SW,4.6,-,N/A,,Clear,230,2013-10-31 17:55:00
11:55 AM,70.0,43.0,38,30.09,10.0,SW,6.9,-,N/A,,Clear,230,2013-10-31 18:55:00
12:55 PM,70.0,42.1,36,30.08,10.0,SSW,10.4,-,N/A,,Clear,210,2013-10-31 19:55:00
1:55 PM,72.0,44.1,37,30.06,10.0,WSW,6.9,-,N/A,,Clear,250,2013-10-31 20:55:00
2:55 PM,72.0,45.0,38,30.04,10.0,WSW,6.9,-,N/A,,Clear,250,2013-10-31 21:55:00
3:55 PM,71.1,46.0,41,30.03,10.0,West,6.9,-,N/A,,Clear,280,2013-10-31 22:55:00
4:55 PM,69.1,43.0,39,30.04,10.0,West,8.1,-,N/A,,Clear,260,2013-10-31 23:55:00
5:55 PM,64.9,43.0,45,30.04,10.0,West,4.6,-,N/A,,Clear,270,2013-11-01 00:55:00
6:55 PM,63.0,43.0,48,30.04,10.0,Calm,Calm,-,N/A,,Clear,0,2013-11-01 01:55:00
7:55 PM,57.9,48.9,72,30.05,10.0,Calm,Calm,-,N/A,,Clear,0,2013-11-01 02:55:00
8:55 PM,55.9,45.0,67,30.06,10.0,NE,5.8,-,N/A,,Clear,50,2013-11-01 03:55:00
9:55 PM,54.0,43.0,66,30.06,10.0,ENE,4.6,-,N/A,,Clear,60,2013-11-01 04:55:00
10:55 PM,51.1,46.0,83,30.07,10.0,Calm,Calm,-,N/A,,Clear,0,2013-11-01 05:55:00
11:55 PM,50.0,43.0,77,30.07,10.0,NE,4.6,-,N/A,,Clear,50,2013-11-01 06:55:00